GFSNW_925_spd_273.txt.gz
Wind_Speed
17 15 15 17 23 27 9 6 4 9 20 4 4 9 6 6 19 22 11 6 7 8 5 10 10 9 9 12 12 6 9 1 3 7 6 8 4 6 3 5 5 5 6 2
12 12 12 16 19 21 10 3 5 14 12 5 8 9 17 19 20 20 5 5 6 13 10 6 8 8 6 8 6 2 3 1 3 10 7 2 5 3 2 3 3 3 3 3
13 10 12 15 17 17 10 4 3 4 6 7 12 12 14 16 18 20 15 6 7 11 11 9 7 7 5 11 5 7 6 2 4 7 6 3 6 7 6 5 2 4 1 4
15 13 13 16 17 16 8 3 5 6 4 7 12 14 14 17 18 7 6 9 12 9 8 8 3 7 9 8 3 4 4 2 7 10 8 7 0 6 5 6 6 4 6 5
15 14 14 16 19 16 3 3 4 6 11 12 15 11 17 18 20 9 7 8 16 11 7 8 6 7 7 6 4 3 2 3 3 8 8 8 6 9 9 3 4 4 3 6
15 13 13 17 21 13 5 12 10 5 7 9 10 9 15 17 15 10 14 12 11 8 11 8 9 7 10 11 10 7 4 4 1 6 7 6 4 7 7 2 3 4 2 5
11 11 12 15 18 15 6 6 9 4 8 9 10 21 17 20 15 6 13 13 9 11 10 8 8 9 3 13 10 9 6 4 3 3 4 2 7 9 9 19 14 13 12 13
13 13 14 15 17 17 11 9 4 4 7 10 15 22 19 20 15 5 6 5 8 10 4 4 4 4 4 5 15 9 8 4 1 4 1 4 10 6 6 6 8 11 11 11
14 13 14 16 17 19 17 17 13 5 5 4 14 19 15 10 9 6 5 2 3 3 1 3 4 4 3 2 3 6 7 4 5 2 2 1 2 10 8 6 4 8 9 9
13 13 14 15 17 18 18 13 10 6 6 8 7 6 11 9 9 5 4 2 2 4 1 2 2 3 2 2 6 2 3 3 3 2 2 1 6 8 7 2 2 6 6 5
13 13 14 14 16 17 19 17 10 6 6 11 16 15 16 11 10 5 7 4 2 2 1 2 3 3 6 2 6 8 6 4 0 1 1 2 6 5 5 4 5 6 6 6
13 13 14 14 15 16 15 8 13 20 4 9 28 29 33 23 19 9 4 4 3 4 1 2 2 2 3 4 1 2 3 5 5 6 5 6 5 9 8 8 4 5 6 7
12 13 14 14 14 14 13 13 15 12 4 8 10 10 32 26 26 19 3 3 6 7 1 1 0 5 2 2 3 4 4 6 4 6 5 6 8 9 8 7 4 5 6 5
12 12 13 13 15 14 15 9 12 10 5 4 3 4 25 39 25 9 7 3 8 4 2 2 2 4 3 2 3 4 3 1 4 5 6 10 8 7 5 4 6 3 10 13
12 13 13 14 16 17 19 20 19 11 5 4 8 20 21 22 18 16 14 3 4 3 4 3 2 3 5 2 4 3 3 1 1 3 5 6 1 2 5 3 6 8 13 12
12 13 13 13 16 15 8 2 5 1 7 3 4 5 6 15 14 12 8 4 1 5 7 3 2 5 3 2 3 5 9 9 6 3 5 4 1 3 5 3 4 14 13 8
13 14 14 13 13 11 3 5 6 11 15 3 4 3 5 9 12 3 2 3 3 4 3 3 3 3 4 2 1 6 9 8 6 3 2 2 3 3 6 5 10 16 13 14
11 12 13 13 13 11 9 4 9 5 4 4 4 2 5 6 2 3 4 4 2 2 1 3 2 2 3 1 6 7 7 6 3 5 5 3 3 1 3 10 14 16 15 17
11 13 14 6 4 3 5 11 8 7 4 4 3 6 5 11 6 4 2 4 3 3 2 2 1 3 3 6 8 7 5 4 5 4 3 6 6 4 8 10 12 14 11 6
13 9 5 3 2 8 11 1 3 4 5 4 3 2 3 3 3 3 3 2 4 3 5 2 2 3 5 9 9 8 6 5 4 2 5 6 14 16 17 13 8 9 11 14
3 3 2 2 5 2 2 3 4 4 4 5 4 3 2 5 2 1 3 3 4 4 5 6 4 3 4 8 8 7 6 4 17 17 12 12 13 14 12 13 11 16 20 12
7 8 5 1 2 1 4 4 4 5 4 5 8 4 3 3 2 4 6 3 3 4 8 4 4 3 11 9 8 6 7 18 18 22 18 18 18 20 18 16 16 16 14 16
3 3 2 2 2 5 4 7 4 3 4 4 7 5 3 3 7 3 4 5 1 6 3 4 2 7 9 8 7 14 17 20 17 18 24 22 21 21 21 18 18 20 22 21
2 3 3 3 4 5 2 5 3 4 3 4 5 5 4 3 1 3 6 4 4 3 5 3 4 10 9 7 10 16 15 15 16 15 18 18 17 19 21 22 20 20 18 17
2 2 3 5 5 6 9 9 5 4 7 4 3 4 5 4 5 1 2 2 3 5 3 4 6 11 15 7 7 16 14 14 12 16 14 16 17 18 19 19 19 20 19 19
2 4 3 3 7 5 5 5 4 6 4 2 3 4 2 4 3 2 2 3 2 2 2 6 10 13 12 13 11 14 16 17 17 16 16 17 16 16 16 16 15 15 14 14
4 3 3 5 5 5 5 6 5 5 3 3 4 4 5 4 2 4 3 0 2 1 2 5 9 11 12 12 12 14 19 19 19 19 18 17 17 16 15 12 15 13 13 13

GFSNW_925_spd_276.txt.gz
Wind_Speed
19 15 18 22 26 29 10 5 3 11 18 3 2 3 4 7 7 7 8 6 4 1 4 3 8 11 11 11 10 8 9 6 3 4 8 4 6 7 6 5 4 3 5 6
17 16 16 20 22 24 11 3 3 6 8 1 3 6 6 6 9 6 5 7 6 2 2 2 7 8 6 8 8 9 5 1 3 9 8 6 2 3 6 4 3 4 5 5
16 16 17 19 20 20 11 2 3 4 3 3 6 3 6 6 7 12 7 8 5 5 3 3 6 5 1 3 5 7 9 4 7 6 6 3 6 6 4 6 3 4 5 4
17 14 15 19 20 19 7 1 4 2 4 4 7 1 5 12 8 5 3 5 3 4 3 8 4 3 5 6 3 4 5 5 5 5 6 3 4 1 5 6 5 5 6 8
16 13 14 17 21 19 0 1 3 5 4 5 4 2 5 9 15 5 12 5 7 1 5 6 5 3 1 5 3 3 3 2 2 3 6 6 3 6 3 5 1 2 7 5
13 13 14 16 21 13 6 7 6 2 4 4 3 0 6 14 10 12 18 21 4 4 7 4 7 9 6 8 10 5 5 6 3 3 2 3 5 6 10 7 8 4 6 5
13 13 13 14 16 15 6 4 5 2 4 3 3 12 15 15 15 6 16 8 7 11 2 5 5 4 6 8 5 7 6 6 3 3 3 3 5 6 18 16 8 7 7 8
13 13 13 13 14 13 13 8 2 2 3 4 9 14 9 16 9 4 8 4 9 6 5 4 5 5 3 3 6 6 5 5 3 5 4 4 3 3 1 7 5 4 6 7
12 12 12 12 13 15 15 17 9 3 3 4 4 7 4 5 5 7 4 3 3 6 4 4 3 4 6 4 4 7 7 6 5 3 5 6 4 7 4 6 3 3 6 5
12 12 12 12 13 14 15 10 8 5 3 6 2 3 3 4 5 4 5 9 6 4 3 3 3 4 5 4 8 5 4 4 5 2 2 1 4 7 2 4 6 2 3 4
11 12 12 13 13 14 16 12 6 3 3 7 5 5 8 5 2 3 7 6 5 4 3 3 4 3 5 4 5 7 5 6 3 3 4 3 3 4 7 6 3 4 4 4
10 11 13 13 13 13 13 6 7 14 5 6 24 27 33 18 18 5 5 3 3 3 3 0 2 1 2 5 2 2 2 6 6 5 5 4 3 9 4 5 4 2 4 5
11 12 11 11 12 12 11 12 16 6 3 5 6 8 24 18 27 24 3 3 3 6 3 3 2 3 4 3 2 4 4 2 5 5 7 6 7 4 6 4 4 7 6 7
12 12 12 12 12 13 14 12 11 8 5 3 6 9 7 10 12 17 24 7 7 4 2 2 2 3 1 3 4 5 4 4 5 5 3 6 5 5 4 4 9 8 9 11
12 12 12 12 13 15 17 18 21 10 3 3 5 21 22 19 13 14 20 6 2 3 4 3 1 1 3 2 3 4 2 5 4 4 5 5 3 3 4 5 9 5 10 11
12 13 13 12 13 15 7 3 3 8 6 2 4 5 6 16 11 11 7 5 3 2 2 3 3 2 4 3 3 4 2 6 5 5 5 6 4 6 2 11 11 11 16 12
13 14 14 12 11 11 5 3 3 16 13 2 4 4 4 5 5 2 2 5 4 3 1 3 3 4 4 3 4 6 3 8 7 6 6 5 4 4 16 17 14 25 23 22
11 12 13 13 14 14 10 7 4 8 4 1 3 4 3 1 2 7 2 4 1 2 3 2 3 4 3 2 3 6 6 8 8 7 7 4 8 13 15 18 18 17 13 11
12 14 17 7 4 4 4 8 12 9 4 2 2 2 2 4 3 2 3 3 4 1 1 2 4 2 1 7 6 8 7 6 8 11 14 16 15 12 10 14 14 15 10 11
13 9 2 2 3 6 9 1 3 2 2 2 3 1 1 0 4 2 3 1 4 3 4 2 3 3 4 8 9 8 8 9 13 11 7 10 10 11 8 8 6 9 7 8
0 2 2 5 5 1 0 3 3 3 3 4 4 3 3 2 3 2 2 3 3 4 5 6 3 3 4 5 7 8 11 14 14 14 11 11 10 9 10 8 7 9 11 7
7 11 9 4 1 1 5 3 3 5 5 4 6 4 4 1 2 3 3 1 1 5 2 5 3 4 5 9 15 13 15 18 17 18 15 15 15 14 13 13 13 13 16 16
2 3 3 2 2 3 4 5 3 3 3 4 4 4 4 1 2 4 2 4 2 5 2 5 5 4 7 17 14 14 15 21 18 16 20 20 19 20 19 16 15 17 17 17
2 2 3 2 3 4 1 3 4 4 3 1 6 4 3 2 3 2 4 2 2 4 4 5 1 12 18 14 12 14 14 15 15 15 19 18 18 19 20 19 20 21 19 17
2 2 3 4 4 4 8 7 4 4 2 1 3 4 4 3 4 1 4 4 4 1 2 3 4 14 18 18 19 20 10 12 12 16 16 16 18 19 19 22 24 24 22 21
2 3 3 4 5 2 4 5 3 3 4 2 2 4 4 2 4 6 7 3 5 3 3 3 9 12 12 14 15 15 16 17 17 17 18 19 18 18 20 20 19 18 19 17
3 4 4 6 6 5 5 4 3 3 1 2 4 4 3 3 2 2 2 4 2 2 1 7 10 12 13 14 12 17 21 21 20 20 21 22 24 24 22 16 15 16 15 15

GFSNW_925_spd_279.txt.gz
Wind_Speed
18 18 20 24 29 31 14 5 3 5 17 4 1 2 6 4 3 4 5 2 6 1 6 6 4 10 11 11 11 10 6 5 4 10 2 4 5 3 6 5 4 0 3 6
19 18 19 22 25 27 10 3 3 1 5 3 2 4 3 3 3 4 3 4 3 3 3 3 6 7 5 7 9 10 8 0 2 10 7 6 1 3 5 6 4 6 6 6
20 17 19 21 24 23 9 2 3 4 4 1 3 2 3 3 4 6 6 5 2 2 2 3 2 4 2 8 10 10 9 4 7 7 6 3 5 3 4 5 4 4 6 4
15 17 19 22 24 22 3 2 2 1 2 2 1 3 2 3 3 3 3 3 5 3 1 4 1 1 3 5 10 6 6 6 3 5 3 4 4 3 5 6 5 5 4 6
13 15 18 22 24 17 4 2 3 4 3 3 2 2 3 2 4 4 6 5 3 1 5 5 3 3 0 5 2 4 2 2 3 3 4 1 3 5 7 4 2 3 3 1
13 14 15 19 22 14 6 5 3 2 4 5 2 2 3 4 7 8 14 9 5 7 13 8 8 6 5 1 5 4 4 6 4 5 3 5 4 3 6 4 5 3 5 4
13 13 14 15 18 17 7 3 2 2 4 2 2 4 5 7 7 6 11 8 6 9 3 1 2 4 6 4 3 2 6 5 3 3 3 3 5 4 6 12 4 6 6 4
12 12 12 12 14 14 13 5 1 1 3 3 7 7 4 8 7 4 6 11 6 4 4 4 4 5 5 3 6 2 4 6 3 5 4 2 3 5 3 5 3 5 6 6
11 11 11 11 11 14 13 10 6 1 1 4 4 5 5 3 4 7 6 7 9 2 4 3 4 5 5 3 3 6 6 6 5 3 5 7 8 3 4 4 2 3 5 6
11 10 10 10 11 12 13 7 4 2 2 5 2 2 3 4 2 3 5 9 9 3 3 3 3 4 5 5 9 6 3 4 6 3 3 5 5 3 3 3 7 3 4 4
11 8 10 12 11 11 13 10 6 3 2 6 5 6 6 5 1 2 5 8 4 5 3 4 4 3 5 3 6 7 6 6 3 3 4 2 5 2 4 6 3 6 4 4
10 9 10 10 10 10 10 5 2 8 4 6 21 26 28 20 17 1 3 4 5 2 3 1 3 2 1 3 3 2 2 6 6 5 5 4 2 4 5 5 7 4 7 3
11 10 10 10 10 9 8 9 11 3 2 5 3 8 25 26 33 25 3 3 3 4 2 3 3 3 4 4 3 4 3 3 5 4 4 3 6 6 6 5 10 8 6 8
11 11 11 12 11 11 10 10 7 7 4 3 6 7 10 10 16 28 29 14 11 3 2 4 3 3 3 3 3 4 3 3 6 3 3 6 5 6 8 12 12 13 10 10
11 11 11 12 13 14 16 19 19 14 3 2 5 19 27 19 18 22 24 15 4 2 3 2 3 1 4 2 2 3 1 7 5 5 7 5 5 8 10 12 11 11 16 10
11 12 12 13 12 14 10 1 4 7 7 1 4 6 5 2 16 11 5 5 4 3 2 3 3 3 3 4 2 5 3 2 5 6 6 5 7 7 14 15 12 12 13 11
10 12 12 12 11 11 5 4 3 9 11 1 3 4 4 3 1 2 2 4 3 4 2 2 2 2 3 3 4 6 3 4 8 9 9 8 3 8 13 16 14 16 16 13
10 12 13 13 13 16 11 12 16 6 4 3 3 4 3 5 1 2 1 1 1 3 3 2 1 3 2 3 2 4 5 9 9 8 9 10 14 13 12 16 15 12 10 8
12 13 16 12 5 4 4 6 11 5 7 3 3 3 4 2 3 4 4 3 2 3 3 2 2 2 2 6 7 7 7 7 9 12 15 15 16 12 10 11 8 12 8 7
14 8 2 3 5 3 5 4 4 1 3 3 3 2 3 3 1 3 4 1 2 4 4 4 2 2 4 5 5 7 11 15 14 15 8 11 10 11 10 5 5 8 8 10
1 2 2 6 5 4 3 4 5 5 3 4 4 5 3 3 3 4 2 1 3 3 0 2 2 2 3 7 7 5 8 7 5 10 9 8 14 11 9 8 8 12 15 13
7 11 9 5 3 3 2 4 4 5 6 4 5 5 4 1 3 3 1 2 2 3 1 5 4 4 3 11 10 8 9 13 13 12 12 10 10 11 11 12 12 14 17 20
4 3 3 2 2 1 4 6 3 2 2 4 3 3 3 2 3 3 3 5 2 0 2 4 4 4 7 12 13 12 10 15 15 14 17 18 16 16 14 14 16 18 18 20
2 2 4 2 3 4 4 3 4 4 3 2 4 3 3 2 4 4 3 3 1 2 4 5 4 12 11 11 11 16 13 13 15 13 16 15 15 15 18 19 20 22 20 21
2 2 3 5 4 5 8 7 4 4 3 2 3 3 3 3 5 4 2 2 1 2 2 3 7 12 14 13 13 14 14 13 11 14 14 15 16 17 17 20 22 24 24 25
2 4 4 4 6 5 3 5 3 2 2 1 2 3 3 3 4 3 4 4 4 2 2 4 8 10 10 11 11 10 12 15 17 15 16 18 18 18 20 21 22 22 23 21
3 3 4 7 4 8 4 2 3 3 2 3 3 3 3 3 2 3 4 3 1 2 4 6 9 13 13 10 10 12 16 17 19 19 19 20 24 24 22 15 16 17 16 16

GFSNW_925_spd_285.txt.gz
Wind_Speed
18 21 26 30 35 39 14 4 2 3 3 2 1 3 4 1 2 1 2 1 2 4 7 6 6 8 6 10 14 10 5 1 2 2 4 2 1 6 6 4 4 1 2 2
17 19 24 29 32 33 9 3 2 1 2 3 3 2 2 2 1 2 2 2 2 1 4 5 5 6 3 12 12 11 9 4 2 4 4 4 3 4 3 5 3 5 2 0
20 20 22 26 29 28 4 2 1 1 2 1 2 4 2 2 2 2 3 3 2 1 2 2 7 5 4 10 9 8 12 5 7 7 3 5 5 5 6 6 5 7 4 2
18 20 22 26 28 22 3 3 2 2 2 2 1 0 2 2 1 2 2 0 3 5 2 3 3 4 4 3 6 6 10 10 5 3 2 2 5 10 11 9 3 4 4 3
17 18 21 25 27 15 4 2 2 2 1 2 2 1 2 2 1 2 2 0 8 5 3 5 3 5 3 3 5 8 4 7 7 4 3 2 3 2 8 4 7 5 6 3
16 17 19 22 25 15 6 4 1 2 2 1 2 2 2 3 1 1 4 4 5 6 1 9 12 10 7 2 6 9 10 8 6 6 3 5 4 3 5 4 5 9 6 6
15 14 16 17 20 20 6 3 2 2 1 1 2 1 2 1 3 3 4 7 2 2 14 15 5 4 2 5 2 3 7 8 1 4 6 6 3 1 4 11 4 5 14 10
11 13 13 13 16 17 10 4 2 1 1 2 2 2 2 4 3 2 4 4 3 12 8 3 1 2 3 4 4 2 4 6 4 5 5 3 3 8 8 4 5 5 10 9
9 11 11 11 14 15 12 5 2 2 2 1 2 2 3 2 3 2 3 4 9 3 2 2 5 5 4 5 5 3 4 4 4 4 5 7 6 16 5 8 7 8 7 9
7 8 9 9 11 12 12 3 2 2 2 1 2 2 1 2 1 3 3 7 4 4 2 4 4 5 2 7 11 6 4 3 5 5 3 1 5 11 9 5 6 15 11 8
7 6 7 9 10 11 12 4 1 3 2 5 3 2 1 2 2 3 4 3 1 2 3 3 2 4 5 3 3 6 6 7 4 3 4 4 12 11 10 5 12 15 11 9
7 6 6 6 7 8 10 2 4 5 4 4 4 13 18 13 13 5 2 3 3 1 2 1 3 3 2 4 5 1 5 3 7 5 4 2 15 3 4 16 17 10 12 9
7 6 6 5 5 5 6 5 7 2 3 5 5 8 8 14 24 20 4 3 1 3 3 2 2 6 2 5 4 4 2 1 4 6 3 6 8 5 15 15 13 12 9 10
7 7 6 6 5 5 5 4 5 3 3 3 3 6 7 4 8 18 26 15 1 2 3 2 3 4 2 2 1 3 1 9 8 5 5 9 6 11 16 13 14 13 10 9
6 7 6 6 5 8 10 13 14 12 4 3 6 18 16 8 17 22 21 21 11 4 2 3 4 3 3 2 2 4 6 8 7 6 17 4 14 13 16 17 14 13 12 10
7 7 6 6 6 7 5 1 2 9 9 2 4 4 5 3 5 14 14 12 6 3 3 3 3 3 3 3 4 3 8 6 4 5 15 8 16 16 13 15 13 10 10 10
5 5 5 5 6 7 3 2 2 12 5 2 4 4 3 3 7 5 5 12 3 3 3 3 3 3 3 3 4 9 10 8 4 18 20 15 16 11 13 14 14 16 14 14
3 4 6 8 8 10 9 12 19 13 3 2 3 5 4 6 5 4 4 5 4 4 2 2 3 2 3 5 4 7 8 10 15 16 14 18 16 16 13 16 15 14 11 11
7 8 10 10 5 4 3 3 7 24 3 2 3 3 3 0 5 4 4 5 4 2 2 3 2 3 6 5 12 14 19 15 19 14 17 19 19 16 15 15 13 13 11 11
11 6 3 2 5 4 11 3 3 4 4 3 4 3 4 4 4 5 5 0 2 2 4 2 4 5 5 6 7 10 12 20 21 21 15 16 16 16 15 14 11 12 12 14
1 2 2 3 4 5 3 4 5 5 4 5 5 10 8 3 5 5 2 4 3 3 4 4 3 4 2 5 9 7 13 16 11 16 17 18 20 17 15 13 12 17 17 15
3 6 7 4 2 3 4 4 4 5 5 6 6 7 9 4 4 4 3 1 2 4 1 3 4 3 4 8 10 11 10 10 12 14 17 15 15 17 16 16 17 17 18 20
4 2 3 2 3 3 4 6 4 4 3 4 5 6 5 1 5 3 5 7 4 2 3 5 4 3 6 8 8 10 9 11 14 16 18 22 21 20 22 20 18 20 18 18
2 3 3 3 5 5 5 4 3 3 4 8 5 5 4 5 3 4 7 2 4 6 5 6 4 8 10 10 9 11 12 13 16 17 19 20 21 20 19 19 20 20 19 18
3 3 4 6 4 4 3 5 6 9 9 8 3 3 4 2 3 1 4 7 7 8 6 4 4 13 13 13 12 12 13 13 14 16 15 20 22 20 18 17 18 19 20 19
3 5 4 4 7 8 7 8 10 7 6 6 4 4 4 2 2 1 5 4 6 3 1 2 8 14 13 13 13 12 10 12 15 18 22 23 21 20 19 18 18 18 19 18
3 4 4 7 8 8 6 4 4 2 2 3 3 3 3 4 3 4 4 2 1 0 2 4 6 9 13 15 14 13 14 15 18 22 23 24 24 23 21 18 15 16 16 16

GFSNW_925_spd_291.txt.gz
Wind_Speed
21 22 23 25 29 35 8 10 8 12 19 11 13 16 25 2 10 10 10 10 20 22 22 22 19 19 11 20 22 21 17 11 16 16 17 10 10 10 8 5 11 4 10 11
21 22 23 25 27 27 12 4 2 12 17 12 14 22 26 8 10 12 10 10 10 18 20 18 16 15 17 18 18 22 17 11 13 16 9 10 9 12 11 9 16 2 5 10
20 22 24 25 26 26 5 5 5 6 9 15 11 19 11 15 8 2 3 4 9 9 14 17 18 16 11 11 21 15 15 19 13 12 14 16 16 12 8 11 5 10 8 14
19 22 24 25 25 21 4 5 4 4 11 13 14 17 16 18 13 9 8 8 14 14 12 17 15 17 14 12 9 18 19 19 12 8 4 5 12 10 9 12 3 4 16 12
17 20 23 24 25 18 7 6 4 5 9 1 15 7 12 19 15 12 12 9 8 8 16 17 15 18 13 17 17 19 22 16 15 12 10 6 8 13 11 8 1 7 4 11
15 18 20 22 25 18 6 9 11 6 4 10 11 10 9 15 10 7 8 5 4 15 10 11 13 3 7 18 17 19 22 17 13 13 10 10 11 10 8 7 5 6 7 9
13 15 16 19 20 18 11 8 10 7 8 7 9 2 2 5 6 5 10 4 9 8 7 7 8 7 7 1 18 18 20 21 11 10 14 15 9 17 13 7 5 5 7 9
11 12 14 16 17 17 12 8 7 5 9 5 5 3 5 4 3 9 5 4 6 7 8 9 13 12 14 13 14 16 20 15 13 11 14 11 6 6 7 8 9 5 6 12
11 12 12 14 16 17 11 6 7 8 6 2 11 4 4 9 10 11 9 4 6 7 6 11 11 12 14 15 17 17 16 17 12 14 13 16 13 17 13 10 8 8 11 14
11 11 11 12 14 16 12 8 7 7 8 1 4 3 6 6 8 4 5 1 7 7 8 9 9 13 15 14 20 16 15 14 16 11 13 12 11 17 8 10 10 16 16 14
11 12 10 11 12 15 13 8 5 8 6 5 2 7 8 3 6 7 7 5 7 4 10 10 9 10 10 13 19 22 15 14 13 13 11 11 18 14 10 5 13 16 15 12
11 11 10 9 11 12 11 7 3 7 6 9 9 13 13 10 8 7 5 6 5 7 5 6 4 6 4 14 11 20 18 17 13 14 14 12 19 12 11 10 13 14 13 13
10 9 9 8 9 9 8 10 9 11 8 10 12 12 18 16 15 11 5 2 4 1 6 6 3 4 7 9 11 15 16 3 11 13 8 15 17 11 13 12 15 14 14 14
8 8 8 8 9 9 9 10 7 8 6 5 6 1 7 10 12 14 16 11 6 7 4 5 5 6 1 10 8 8 8 11 13 5 5 10 14 13 14 13 15 15 15 14
7 6 7 8 9 11 11 11 8 6 7 5 8 15 13 11 11 13 14 13 9 6 6 6 7 7 5 8 8 9 5 8 11 7 13 9 15 15 14 16 15 17 17 14
7 5 6 6 8 11 10 4 3 4 5 5 4 4 4 9 20 16 12 9 8 7 5 6 8 9 2 7 11 13 8 8 10 8 17 16 16 15 14 16 17 17 16 16
3 3 4 6 8 9 10 5 4 3 4 4 4 4 9 10 9 9 9 13 7 6 8 8 11 8 5 10 13 14 17 11 6 7 2 10 15 17 19 19 19 19 20 20
1 2 4 7 11 12 7 7 9 2 6 4 4 3 2 12 7 8 8 9 9 7 8 6 10 11 6 8 14 18 18 12 10 8 12 12 14 17 20 20 20 19 18 17
5 6 8 10 6 3 5 3 4 3 3 2 4 5 4 6 9 8 8 7 8 7 10 11 8 12 11 11 14 13 18 8 8 14 14 13 19 21 20 20 21 19 17 17
8 6 3 3 4 4 7 6 5 4 3 3 4 8 3 4 8 6 5 0 7 10 12 9 15 16 19 16 12 8 9 14 11 11 15 16 20 21 21 20 18 17 17 18
2 2 1 2 1 3 3 4 4 6 6 7 6 10 9 4 5 3 7 5 6 11 10 15 12 17 17 19 18 14 13 15 16 15 17 21 21 20 20 19 18 20 22 19
2 5 6 2 2 4 4 4 4 5 5 6 8 8 9 5 1 3 3 4 4 7 10 16 20 15 15 19 22 21 14 16 16 18 14 19 19 20 18 17 18 23 25 25
6 4 2 2 3 3 4 5 4 4 5 5 6 2 3 6 5 3 4 5 7 5 8 16 13 11 17 14 15 16 13 15 17 15 16 22 21 26 25 21 25 26 25 24
3 3 4 5 6 6 6 8 5 4 4 4 3 2 3 4 8 4 5 6 5 11 12 17 12 15 13 12 12 13 16 19 19 19 22 22 20 23 25 24 27 27 25 25
3 3 5 7 7 4 2 3 6 5 1 2 1 2 4 5 4 5 5 5 7 6 14 10 7 9 11 13 14 15 14 14 18 20 21 21 27 25 25 26 26 26 26 24
4 6 6 5 5 7 7 7 6 5 3 3 1 1 4 8 4 7 7 7 6 9 9 9 10 10 11 12 13 14 14 17 18 20 25 28 26 26 27 27 26 25 24 24
4 5 6 7 6 6 6 6 8 4 2 4 4 7 9 5 6 9 8 7 7 9 11 8 5 12 13 13 13 14 16 17 20 26 27 28 29 28 27 20 24 24 23 22